This is the latest recevied weather packets stored in our database for station/object DL1NER. If no packets are shown the sender has not sent any weather packets the latest 10 day(s).
| Time | Temp. | Humidity | Pressure | Rain* | Wind** | Luminosity | Snow |
|---|---|---|---|---|---|---|---|
| 1777542011 | 12.78° C | 27% | 1030 hPa | 0 mm | - | 0 W/m² | - |
| 1777541410 | 12.78° C | 29% | 1030.1 hPa | 0 mm | - | 0 W/m² | - |
| 1777540210 | 12.22° C | 31% | 1030.2 hPa | 0 mm | - | 0 W/m² | - |
| 1777539610 | 11.67° C | 30% | 1030.1 hPa | 0 mm | - | 0 W/m² | - |
| 1777539010 | 11.67° C | 30% | 1030.1 hPa | 0 mm | - | 0 W/m² | - |
| 1777538409 | 11.11° C | 33% | 1030.2 hPa | 0 mm | - | 0 W/m² | - |
| 1777537809 | 11.11° C | 32% | 1030.3 hPa | 0 mm | - | 0 W/m² | - |
| 1777537209 | 10.56° C | 34% | 1030.2 hPa | 0 mm | - | 0 W/m² | - |
| 1777536610 | 10° C | 36% | 1030.2 hPa | 0 mm | - | 0 W/m² | - |
| 1777536009 | 9.44° C | 35% | 1030.3 hPa | 0 mm | - | 0 W/m² | - |
| 1777535409 | 9.44° C | 36% | 1030.5 hPa | 0 mm | - | 0 W/m² | - |
| 1777534809 | 8.89° C | 36% | 1030.4 hPa | 0 mm | - | 0 W/m² | - |
| 1777534209 | 8.33° C | 36% | 1030.5 hPa | 0 mm | - | 0 W/m² | - |
| 1777533610 | 8.33° C | 36% | 1030.5 hPa | 0 mm | - | 0 W/m² | - |
| 1777533009 | 7.78° C | 39% | 1030.5 hPa | 0 mm | - | 0 W/m² | - |
| 1777532410 | 7.78° C | 39% | 1030.6 hPa | 0 mm | - | 0 W/m² | - |
| 1777531810 | 7.22° C | 38% | 1030.5 hPa | 0 mm | - | 0 W/m² | - |
| 1777531210 | 7.22° C | 39% | 1030.6 hPa | 0 mm | - | 0 W/m² | - |
| 1777530609 | 6.67° C | 41% | 1030.4 hPa | 0 mm | - | 0 W/m² | - |
| 1777530010 | 6.11° C | 42% | 1030.5 hPa | 0 mm | - | 0 W/m² | - |
| 1777529409 | 5.56° C | 43% | 1030.5 hPa | 0 mm | - | 0 W/m² | - |
| 1777528809 | 5.56° C | 45% | 1030.4 hPa | 0 mm | - | 0 W/m² | - |
| 1777528210 | 5° C | 45% | 1030.3 hPa | 0 mm | - | 0 W/m² | - |
| 1777527609 | 4.44° C | 46% | 1030.2 hPa | 0 mm | - | 0 W/m² | - |
| 1777527010 | 3.89° C | 48% | 1030.2 hPa | 0 mm | - | 0 W/m² | - |
* Rain latest hour (hover to see other rain measurements)
** Current wind speed in m/s (hover to see current wind gust speed)